Location: Terre Du Lac
(37.9120°N, 90.6250°W)
Time: 11:48:39
(UTC-05:00)

Hubble Space Telescope - Visible Passes

Search period start: 28 June 2016 00:00
Search period end: 08 July 2016 00:00
Orbit: 539 x 543 km, 28.5° (Epoch: 27 June)

Date Brightness Start Highest point End Pass type
(mag) Time Alt. Az. Time Alt. Az. Time Alt. Az.
29 Jun 3.1 22:11:54 10° SSW 22:12:16 11° SSW 22:12:16 11° SSW visible
30 Jun 2.5 22:01:51 10° SSW 22:03:44 17° S 22:03:44 17° S visible
01 Jul 2.2 21:51:52 10° SW 21:54:52 19° S 21:54:58 19° S visible
02 Jul 2.2 21:41:57 10° SW 21:45:05 21° S 21:46:01 19° SSE visible
03 Jul 2.2 21:32:06 10° SW 21:35:17 21° S 21:36:56 17° SE visible
04 Jul 2.2 21:22:17 10° SW 21:25:30 22° S 21:27:45 15° SE visible
05 Jul 2.2 21:12:31 10° SW 21:15:43 22° S 21:18:30 12° SE visible
06 Jul 2.3 21:02:47 10° SW 21:05:56 21° S 21:09:05 10° SE visible
07 Jul 2.4 20:53:05 10° SW 20:56:08 20° S 20:59:12 10° SE visible
